Theta_e
315 315 316 316 316 317 319 319 317 318 320 321 321 323 324 323 324 324 323 323 322 322 322 322 322 323 324 325 326 327 327 327 327 326 327 329 330 330 329 329 328 328 328 326 326 326 326 326 325 325 323 323 322 322 322 322 321 321 320 320 320 320 319 319 319 319 319 319 320
315 315 315 313 314 316 318 318 318 319 320 322 322 323 324 324 324 324 323 322 322 322 322 322 322 323 324 325 326 326 327 327 327 326 327 329 330 330 329 329 328 328 327 327 326 327 326 325 325 325 324 323 323 322 322 322 321 320 320 319 320 319 319 319 319 319 319 319 320
314 315 316 316 317 318 319 319 320 320 321 322 323 324 324 324 325 325 324 323 322 322 322 322 323 323 324 325 326 327 327 327 327 327 328 330 329 329 328 328 328 327 326 326 327 326 326 325 325 324 324 323 323 322 322 322 321 320 319 319 320 320 319 319 319 319 319 319 319
315 316 317 317 318 318 319 320 320 321 322 323 324 324 325 325 325 326 324 323 323 323 323 323 323 324 324 325 326 327 327 326 327 327 328 329 329 329 328 328 327 327 327 327 327 326 326 325 325 325 324 323 323 322 322 322 321 320 320 319 320 320 319 319 319 319 319 319 319
314 316 317 318 318 319 320 320 320 321 322 324 324 325 325 326 326 326 325 324 323 324 324 325 325 324 324 325 325 326 327 326 323 325 328 329 329 328 328 327 327 327 327 327 326 326 325 325 325 325 324 323 323 323 323 322 322 321 320 320 320 319 319 319 319 319 319 319 319
314 315 317 318 318 320 320 321 321 321 323 324 324 325 325 326 326 326 325 325 324 324 324 323 323 323 323 325 325 326 327 327 325 326 328 328 328 328 327 327 327 326 327 326 326 326 326 325 325 325 324 324 323 323 323 322 322 321 320 320 320 319 319 318 319 319 319 318 318
314 315 317 318 319 320 321 321 321 322 323 324 324 324 325 325 325 325 325 324 324 324 323 322 323 324 324 325 325 326 326 327 327 327 328 328 327 327 327 326 327 327 326 326 326 326 326 325 325 324 322 321 322 323 323 322 322 321 320 320 320 320 319 318 319 319 319 318 318
313 315 316 318 319 320 320 321 321 322 322 324 323 323 324 324 325 325 324 324 324 324 323 324 326 326 326 325 325 326 326 327 327 327 328 328 327 327 327 326 326 326 326 326 326 326 325 325 325 324 323 323 323 323 322 322 321 321 321 320 320 320 320 319 319 319 319 318 318
313 314 316 318 319 320 321 322 321 321 322 323 323 323 324 324 325 325 325 324 324 323 324 324 326 327 326 325 325 326 326 327 327 327 328 328 327 327 327 327 327 326 326 326 326 326 326 325 325 324 324 324 323 323 323 322 321 321 320 320 320 319 320 319 319 319 319 319 319
313 314 316 318 319 319 321 322 321 321 321 322 323 323 323 320 323 325 325 324 323 323 324 325 326 327 327 326 326 326 326 327 328 328 328 327 327 327 327 327 326 326 326 326 326 325 325 325 325 324 324 324 323 323 322 322 321 321 321 320 320 320 319 319 319 319 319 319 319
313 314 316 318 319 319 320 321 321 321 322 322 322 323 322 321 324 325 325 324 323 324 324 325 326 327 327 326 326 326 326 327 328 329 329 327 327 327 327 327 326 326 326 326 326 326 325 325 324 324 323 324 323 322 322 322 321 321 321 321 320 320 320 319 319 320 320 319 319
314 315 317 318 319 320 320 321 321 321 322 322 322 322 323 324 326 325 325 324 324 324 324 325 326 327 327 327 327 326 327 329 330 329 328 328 328 328 327 327 327 326 326 326 326 326 325 325 324 323 323 323 323 322 322 321 321 321 321 321 321 320 320 320 320 321 321 320 320
314 316 318 319 319 320 321 321 321 321 322 322 322 322 323 324 325 325 325 325 324 324 325 325 326 327 327 327 327 327 328 329 329 329 328 328 328 327 327 327 327 327 326 326 326 326 325 325 324 323 322 322 322 322 322 321 321 321 321 321 321 321 320 321 321 321 320 320 320
315 317 318 319 320 320 321 320 321 321 322 322 322 323 323 324 324 324 325 325 325 326 326 326 326 327 328 329 329 329 329 329 329 329 328 328 328 327 327 327 327 326 326 326 326 325 325 325 324 323 322 322 322 322 322 322 322 322 321 321 321 321 321 321 321 321 320 320 320
316 318 319 320 320 321 321 321 321 321 322 322 323 323 324 324 323 324 325 326 327 327 328 328 328 328 329 330 330 329 329 328 329 329 328 327 328 327 327 327 326 326 326 326 325 325 325 324 324 323 322 322 322 321 321 321 322 322 322 321 321 321 321 321 321 321 321 320 320
317 319 321 320 320 321 321 322 322 322 322 323 324 323 324 323 323 324 324 325 327 327 329 329 330 331 331 330 330 329 328 328 328 328 328 328 327 327 327 326 326 326 326 326 325 325 325 325 324 323 323 322 321 321 321 321 321 321 321 321 321 321 321 321 321 321 321 320 320
319 320 321 320 320 321 321 322 322 322 323 324 324 323 323 323 323 323 323 323 325 326 327 329 330 331 330 328 328 328 327 327 328 328 328 328 327 327 327 327 326 326 326 326 325 325 324 325 324 324 323 322 321 320 320 320 320 320 320 320 321 321 321 319 321 321 321 320 319
320 321 321 320 320 320 321 322 322 323 323 324 324 323 323 323 324 323 323 323 325 326 327 328 330 329 329 328 328 327 327 328 328 329 329 328 328 327 327 327 326 326 326 326 325 325 324 324 324 323 323 322 321 321 320 320 320 320 320 320 320 320 320 319 320 320 320 320 319
320 321 321 320 319 320 320 321 322 323 323 324 324 324 324 324 324 324 324 325 326 327 328 329 329 329 329 329 329 328 327 329 329 330 329 329 328 328 327 327 327 327 326 326 325 325 324 324 323 323 322 322 321 321 320 320 320 319 319 319 319 319 318 318 319 319 319 319 318
320 321 321 320 319 319 320 321 322 323 323 324 324 325 325 325 325 324 325 326 326 327 329 330 330 329 330 330 331 330 330 330 330 330 330 329 329 328 328 327 327 327 327 326 326 325 325 324 323 323 322 322 321 320 320 319 319 319 319 319 318 318 318 318 319 319 319 319 318
320 321 321 320 319 319 320 322 322 323 324 324 325 325 325 326 325 326 326 327 327 328 330 330 330 330 331 331 331 332 331 330 331 330 330 330 329 329 328 328 327 327 327 326 326 325 325 324 324 323 323 321 321 321 320 320 319 319 318 318 318 318 318 318 318 319 319 319 319
320 321 321 320 320 320 321 322 323 323 324 324 325 325 325 326 326 327 328 328 328 329 330 331 330 330 331 332 331 332 332 331 331 331 330 330 329 328 328 328 328 327 326 326 326 325 325 324 324 323 323 322 322 321 320 320 319 319 318 318 318 318 318 318 318 318 319 319 319
320 321 321 321 320 320 320 322 322 323 323 324 324 325 326 326 326 327 328 328 328 329 330 330 330 330 330 331 331 331 331 331 331 331 331 331 330 329 329 328 328 327 327 327 326 326 325 324 324 323 323 323 322 321 320 320 319 319 319 319 319 319 319 319 319 319 320 320 321
321 321 321 322 321 321 321 322 322 322 323 323 324 325 326 326 326 327 327 327 328 329 330 330 329 329 329 328 329 329 329 330 329 329 330 330 330 331 331 331 331 330 329 327 325 323 323 323 325 324 324 323 322 322 321 321 321 321 321 321 321 321 321 321 321 321 321 322 322
321 321 321 321 321 321 322 322 322 322 322 322 323 324 325 326 326 326 326 326 327 327 328 328 328 327 327 326 327 327 328 328 329 329 330 330 329 326 324 320 317 314 311 306 304 305 308 312 319 323 325 324 323 322 322 322 322 322 322 322 321 322 322 322 322 322 322 322 323
321 321 321 321 321 321 321 321 322 322 322 322 323 324 325 326 326 326 326 326 326 326 327 327 326 325 324 325 325 324 324 323 323 322 321 318 315 314 313 312 311 308 303 297 297 299 301 302 305 311 319 327 326 324 322 321 321 320 320 320 320 320 321 321 321 321 321 321 321
321 321 321 321 321 321 321 321 321 321 322 322 323 324 326 327 327 327 326 325 324 323 322 322 321 317 316 318 316 315 314 313 313 312 311 309 307 306 305 305 304 302 299 294 296 298 300 301 301 304 310 321 322 321 320 319 315 313 313 313 312 313 314 316 316 317 316 314 309
321 321 321 321 321 321 321 321 321 321 321 322 323 325 326 327 326 325 322 319 316 314 314 313 312 311 311 309 308 307 307 307 306 306 305 304 303 303 302 301 300 298 296 294 297 299 301 301 300 301 302 307 311 310 308 307 306 305 304 303 303 303 303 304 304 303 302 300 300
321 321 321 321 320 320 321 321 320 321 321 322 323 322 321 321 318 315 312 311 310 309 309 309 308 308 307 305 304 304 304 304 304 304 303 302 301 300 300 299 298 296 295 295 298 299 299 298 298 298 298 300 303 305 303 302 301 300 300 299 299 299 299 299 299 299 299 299 299
321 321 320 320 320 320 320 320 320 321 321 320 317 314 311 309 308 308 307 307 306 306 305 306 305 304 304 303 302 302 302 302 302 302 301 299 299 298 298 297 297 296 295 295 296 297 297 296 296 296 296 296 299 300 300 298 298 297 296 296 296 297 297 297 297 297 297 297 296
321 321 321 321 321 321 321 321 320 318 315 311 308 307 306 306 305 305 304 303 303 302 302 303 302 302 301 301 301 300 300 300 300 299 298 297 296 295 295 295 295 295 294 294 294 294 295 295 294 294 294 294 295 296 296 295 295 294 294 294 294 294 295 295 295 295 295 295 295
321 320 319 318 318 318 318 317 314 311 308 306 306 305 304 303 303 302 302 302 301 301 301 300 300 299 299 299 298 298 298 298 298 297 297 296 295 294 294 293 293 293 292 292 293 293 293 293 293 292 292 292 293 294 294 293 293 292 292 292 292 292 292 293 293 293 293 293 293
316 315 313 312 312 312 312 311 309 307 306 305 304 303 302 302 302 301 301 301 300 300 299 298 298 298 297 297 296 296 295 295 295 295 295 294 294 293 293 292 292 292 291 291 291 291 292 292 291 291 291 291 292 292 292 292 291 291 290 290 290 290 290 290 291 291 291 291 291
311 310 309 308 308 308 307 307 306 306 305 303 302 302 301 301 300 299 299 298 298 298 297 297 297 296 296 295 295 294 294 294 294 294 294 294 293 292 292 292 291 291 291 291 291 291 291 291 291 291 290 290 291 291 291 290 290 290 289 289 289 289 289 289 289 289 289 290 290
309 308 307 306 306 306 305 305 305 304 303 301 301 300 300 299 298 298 298 297 296 296 296 296 296 295 295 295 294 294 293 293 293 293 293 293 292 291 290 290 290 290 290 290 290 291 291 291 290 290 290 290 290 290 290 289 288 288 288 288 288 288 288 288 288 288 289 289 289
309 307 306 305 304 304 303 303 302 301 301 300 299 298 298 298 298 297 297 296 296 296 295 295 295 294 294 293 293 293 292 292 292 292 292 292 291 290 290 289 289 289 289 290 290 290 290 290 290 290 290 290 290 289 289 288 287 287 287 286 286 286 287 287 287 287 288 288 288
308 307 306 305 303 303 302 301 300 300 299 298 298 297 297 297 297 297 296 296 295 295 294 293 293 292 292 292 292 292 292 292 291 291 291 291 290 290 289 289 289 289 289 289 290 290 290 290 290 290 290 290 289 288 288 287 287 286 286 285 285 286 286 286 286 286 287 287 287
306 306 305 304 303 302 301 300 299 298 298 297 297 297 297 296 296 296 296 295 294 293 292 292 291 291 291 291 291 291 291 291 290 290 290 289 289 289 288 288 288 288 288 289 289 289 290 290 289 289 289 289 288 288 287 287 286 285 285 285 285 285 285 285 286 286 286 286 287
303 303 303 303 302 301 300 299 298 297 297 296 296 296 296 295 295 295 295 294 293 292 291 291 290 290 290 290 290 290 289 290 290 289 289 289 289 288 288 288 288 288 288 289 289 289 289 289 289 289 289 288 288 287 287 286 285 285 284 284 284 284 284 285 285 285 285 286 287
301 301 301 300 300 299 298 297 296 296 295 295 294 294 294 293 293 293 293 292 292 291 290 290 289 289 289 289 289 288 288 288 288 288 288 288 288 288 288 287 287 287 288 289 289 289 289 289 289 289 288 288 287 287 286 286 285 284 284 284 283 283 283 284 284 284 284 284 285
301 300 299 299 298 297 296 296 295 295 294 294 293 293 292 292 292 292 291 291 290 290 289 289 288 288 288 288 287 287 286 286 287 287 287 287 287 288 288 287 287 287 287 288 289 289 289 289 289 288 288 287 287 287 286 285 284 283 283 283 283 283 283 283 283 283 283 283 284
Wind_Speed
11 10 9 8 8 7 7 6 5 6 6 6 7 7 7 7 8 7 7 7 7 7 8 8 8 9 9 10 10 11 12 14 20 26 28 26 19 17 17 17 16 16 16 15 15 15 14 14 12 10 8 8 9 10 10 10 11 11 11 10 10 10 10 11 11 11 12 11 10
11 10 9 8 7 7 6 5 5 5 6 6 6 7 7 8 8 8 8 8 8 7 7 7 9 11 14 15 15 15 16 17 21 25 27 25 19 17 17 17 17 17 17 17 16 14 13 13 12 10 8 8 9 9 10 10 11 11 11 12 10 9 9 10 10 11 11 11 9
11 10 9 8 8 7 6 6 6 6 7 6 6 6 7 7 8 8 9 9 8 7 7 7 9 13 17 19 17 17 18 19 21 24 26 23 18 18 18 17 18 17 17 16 16 14 13 13 11 10 9 9 10 10 10 11 11 10 10 12 9 8 8 8 9 9 9 8 9
11 10 10 9 10 9 8 7 7 8 8 7 6 7 7 7 7 8 8 8 8 7 7 7 9 12 15 17 18 18 18 19 21 24 26 24 19 18 19 18 19 18 17 17 16 15 14 13 10 9 9 11 12 12 11 10 10 10 9 10 8 8 8 7 7 7 7 7 8
10 10 10 10 11 10 9 7 8 9 8 7 6 7 7 7 7 7 8 8 8 8 9 9 10 11 13 16 18 19 18 18 20 23 26 24 20 18 19 19 19 19 18 17 17 16 16 14 10 9 9 11 11 11 11 12 12 10 9 7 7 7 7 7 7 6 6 6 6
10 10 10 9 10 9 8 7 9 9 8 7 7 8 8 7 7 8 8 9 9 9 10 10 10 11 13 16 18 19 18 18 19 23 26 24 19 18 19 19 19 18 17 17 18 17 16 14 10 9 9 9 9 10 12 13 12 11 9 8 7 7 7 7 7 6 6 6 6
10 10 10 10 10 9 8 8 8 8 8 8 9 10 10 9 9 9 10 9 9 9 9 9 10 11 13 15 17 18 18 18 21 25 27 22 19 18 19 19 19 18 18 18 18 17 15 13 10 9 8 8 8 9 11 12 11 11 10 9 7 7 7 8 7 6 6 8 8
9 9 10 10 10 10 9 9 9 9 8 8 9 10 11 11 11 11 10 10 9 9 9 9 11 12 13 15 17 19 20 20 24 26 27 22 19 19 19 18 18 18 18 18 17 16 15 12 10 9 9 8 8 9 11 12 12 12 11 10 8 7 6 6 7 7 7 9 9
8 8 9 9 9 10 10 10 10 10 9 9 10 11 12 11 12 12 11 10 10 10 10 10 11 13 14 15 18 20 21 21 26 27 25 21 19 18 18 18 18 18 17 16 17 16 15 11 9 9 9 8 9 10 11 12 13 12 12 11 9 8 7 6 7 8 8 9 10
8 8 9 9 9 9 9 10 10 10 10 9 10 11 12 11 12 11 11 9 9 10 10 11 12 13 14 15 18 20 21 22 26 26 24 20 18 18 18 17 17 17 16 15 15 15 14 11 10 9 9 10 11 11 12 12 13 13 12 9 9 9 8 7 7 8 9 9 10
9 9 9 8 9 9 9 10 9 10 10 9 10 11 12 11 11 11 10 9 9 10 12 12 14 15 15 15 17 20 22 22 25 24 21 19 18 18 18 17 17 17 16 15 14 13 12 10 10 11 11 10 11 12 12 13 13 13 12 9 10 10 10 9 9 9 9 9 10
9 9 9 8 9 9 9 9 8 8 9 9 9 11 12 12 11 11 10 10 11 11 12 13 15 16 16 14 17 20 23 24 23 21 18 18 18 18 17 17 17 17 16 16 14 12 10 10 11 12 13 12 10 10 11 13 13 13 13 11 11 11 11 10 10 9 8 9 10
9 9 9 8 9 9 9 9 8 7 8 8 9 11 11 11 11 11 11 12 11 11 11 14 16 17 17 16 17 19 21 23 21 19 17 17 17 17 17 16 16 16 15 15 13 11 11 11 13 14 14 13 10 10 11 13 13 13 13 13 12 12 12 12 11 10 9 9 9
9 9 9 9 9 9 9 9 7 7 7 8 9 10 10 10 10 10 11 12 12 11 12 14 16 17 18 18 17 18 19 19 18 17 17 17 16 16 16 15 15 15 14 13 12 12 12 12 13 14 14 13 12 11 12 13 13 13 13 13 13 13 12 12 11 10 10 10 10
9 9 9 9 10 9 9 9 7 7 7 8 9 9 9 9 9 9 11 12 12 12 12 14 15 18 21 22 20 19 18 18 16 16 17 17 16 16 15 15 15 15 14 12 12 12 13 13 14 14 14 14 13 12 12 12 13 13 13 13 13 13 13 12 11 11 10 11 10
9 10 10 10 10 9 9 8 7 7 7 8 9 9 9 9 9 9 11 13 12 11 11 14 15 17 20 22 21 20 19 18 17 16 16 17 16 16 16 15 15 15 14 13 12 11 12 13 13 13 13 13 13 12 12 12 12 12 13 13 13 13 12 12 11 11 11 11 11
9 10 11 11 11 10 10 9 8 7 8 9 9 10 10 9 9 9 11 13 12 11 11 13 13 14 16 19 19 19 19 18 17 16 16 17 17 16 16 15 15 14 14 13 12 12 11 11 11 12 12 13 12 12 11 11 11 11 12 11 11 11 11 11 11 11 11 11 11
10 10 11 12 11 11 11 10 9 9 9 9 10 10 10 10 10 10 12 14 13 13 13 14 13 14 16 18 18 17 17 18 17 16 16 16 17 16 16 15 14 14 13 13 12 12 12 11 11 11 11 11 11 10 10 10 10 10 10 10 10 10 10 9 10 10 9 10 9
10 10 11 12 12 12 11 11 10 10 10 10 10 10 11 12 13 13 14 15 14 14 15 15 15 16 17 19 18 17 16 16 16 16 16 16 16 16 15 14 13 13 12 12 12 11 11 11 11 11 10 10 10 9 9 9 9 9 9 9 9 9 9 8 8 8 8 8 8
10 11 11 12 12 12 11 11 10 10 10 10 11 11 12 13 15 16 16 16 15 16 17 17 17 17 18 18 18 17 15 14 15 15 15 14 14 14 14 13 12 12 12 11 11 11 11 11 10 10 10 10 10 9 9 8 8 8 8 8 8 8 8 8 8 7 7 7 7
11 11 11 12 12 12 11 10 9 10 10 10 11 12 12 13 15 17 18 17 16 16 17 18 18 18 17 16 16 15 14 12 13 14 14 13 13 13 12 12 11 11 11 10 10 10 10 10 10 10 10 9 9 9 8 8 8 8 7 6 6 7 7 7 7 7 7 7 7
11 11 11 12 12 11 10 9 9 9 10 11 11 11 12 13 14 16 17 16 16 16 16 17 18 17 16 15 14 14 13 11 12 13 12 12 11 11 10 10 10 10 10 10 10 10 10 9 9 9 9 8 8 8 8 7 7 7 6 5 5 5 5 5 6 6 6 6 6
10 10 10 11 11 10 9 8 8 9 10 11 11 11 11 12 13 14 15 16 15 15 15 16 16 15 14 14 13 13 13 13 13 12 12 11 11 11 10 10 10 10 10 10 10 10 10 9 9 9 8 8 8 7 7 7 6 6 5 5 4 4 4 4 5 5 5 5 5
10 9 9 9 10 10 9 8 8 9 10 11 12 12 11 12 13 13 14 14 14 13 13 13 13 14 14 13 12 13 13 14 14 14 13 12 12 11 10 9 9 8 8 7 8 8 9 8 8 8 7 7 7 6 6 6 5 5 5 5 4 4 4 4 5 5 5 5 5
9 9 9 9 10 10 9 8 8 9 10 13 13 13 12 13 13 13 13 13 12 12 13 14 14 14 13 12 11 11 11 13 14 15 14 13 12 11 9 8 7 5 5 4 6 7 8 7 7 7 6 6 6 6 5 4 4 4 4 4 4 4 4 5 5 5 5 6 6
9 9 10 10 11 10 9 9 9 10 13 15 15 14 13 13 13 14 14 12 11 11 11 12 13 12 12 11 10 9 8 9 9 11 13 13 12 10 9 7 6 5 4 4 7 9 9 8 7 6 6 5 5 5 4 3 3 3 2 2 1 1 1 2 2 2 2 1 1
9 10 11 11 11 11 10 9 10 13 16 17 16 14 12 11 13 13 13 11 9 9 9 10 11 10 10 10 10 10 9 8 9 11 13 13 13 11 10 8 6 4 4 5 10 12 13 12 11 9 7 5 5 5 5 5 7 8 8 7 7 6 5 5 5 5 6 7 7
10 10 11 12 11 11 10 10 11 15 17 18 19 15 11 12 13 12 12 13 13 13 12 12 12 11 11 11 13 13 12 11 11 12 13 14 13 12 10 8 6 5 4 7 12 15 16 16 15 13 11 9 8 8 8 8 8 8 8 8 8 8 8 7 7 7 8 8 8
10 11 12 12 11 10 10 11 14 16 17 16 15 11 10 13 14 15 16 16 15 14 12 11 11 11 11 12 12 12 12 12 12 13 14 15 14 13 12 11 9 8 9 12 16 18 18 18 18 18 16 13 9 8 8 8 8 7 7 7 7 7 7 7 6 6 6 7 7
10 11 12 12 10 10 10 12 14 14 13 10 12 14 17 17 17 17 17 17 15 14 12 11 12 13 13 12 12 12 12 11 12 13 15 16 16 15 14 13 11 11 13 17 19 20 20 20 20 20 19 16 12 10 9 9 8 8 8 7 7 8 8 8 8 8 7 6 7
11 11 12 11 10 11 11 12 12 12 13 15 17 18 19 19 18 17 16 16 15 13 13 14 16 15 14 12 13 13 13 13 13 14 16 17 17 16 15 15 14 14 15 19 21 22 22 22 22 21 20 17 13 11 10 9 9 9 8 8 9 9 9 9 9 9 8 7 7
11 11 11 11 10 11 12 12 13 15 16 18 19 19 20 19 18 17 15 14 14 14 15 16 17 16 15 15 15 15 15 15 15 15 15 16 17 17 16 15 14 14 16 19 21 23 23 23 23 22 20 18 15 13 12 11 10 10 10 11 11 11 10 9 9 9 9 8 8
13 13 13 13 13 14 15 16 16 16 17 18 19 20 20 19 18 16 15 13 13 14 15 16 17 17 17 16 17 17 17 16 16 15 16 16 17 17 17 15 13 14 16 20 22 23 23 23 23 22 21 19 15 13 12 12 10 10 11 11 12 12 12 11 10 10 10 10 9
17 17 17 17 17 17 17 17 17 17 18 19 19 19 19 19 18 16 14 11 12 13 14 15 16 16 16 16 17 17 16 14 15 15 16 16 17 18 17 14 11 12 16 20 21 22 23 23 22 22 21 18 15 13 13 13 12 12 12 12 12 12 12 12 12 12 11 10 9
20 19 19 19 18 18 18 18 18 18 19 19 19 19 18 18 17 16 14 12 13 14 15 16 16 17 17 17 17 17 16 16 15 15 15 16 17 19 18 15 13 14 17 19 20 21 22 22 21 20 19 16 13 13 13 14 14 14 14 14 14 14 13 13 12 11 11 10 10
21 21 21 20 20 20 19 19 19 19 20 19 19 18 17 17 16 14 13 13 15 17 17 17 17 18 18 17 17 16 16 16 15 15 15 16 18 19 18 17 15 15 17 18 19 20 20 20 20 19 17 14 12 12 12 13 13 14 15 15 14 14 14 13 12 11 11 10 9
20 21 22 22 22 21 21 21 21 20 20 19 18 18 17 16 14 13 12 13 16 18 18 18 18 18 18 18 16 15 15 15 15 15 15 16 17 18 18 17 15 15 16 17 18 18 19 19 19 18 16 13 12 11 11 11 11 12 13 14 14 13 12 11 11 11 11 11 10
17 18 20 22 22 22 22 22 22 21 20 18 17 16 16 15 14 12 11 13 17 18 19 18 18 18 18 18 17 17 16 15 16 16 16 16 16 17 17 17 15 14 15 16 17 18 18 18 18 17 15 13 12 11 11 10 11 11 11 12 11 11 10 9 9 10 12 14 14
16 16 17 19 21 22 23 23 23 21 20 18 16 16 15 15 13 12 12 14 17 19 19 19 18 17 17 17 18 17 17 16 16 17 17 17 17 17 17 17 16 15 15 16 18 18 18 18 18 17 16 13 12 11 10 10 11 11 11 10 10 10 10 9 9 9 12 15 18
17 17 17 18 19 20 22 23 22 21 20 18 17 16 16 16 15 14 14 15 17 18 19 19 18 17 16 17 18 18 18 17 17 17 18 18 18 18 18 17 16 15 15 17 18 18 18 18 17 16 15 12 11 10 10 10 11 11 10 9 9 9 9 9 9 9 11 13 16
18 18 18 18 18 19 21 21 21 20 19 19 18 16 15 16 15 15 15 16 17 17 17 17 17 17 16 16 16 18 19 18 18 17 18 18 18 18 17 16 16 15 15 16 17 18 18 18 17 16 14 11 10 9 9 9 11 11 11 9 8 8 8 9 9 9 10 11 11
Wind_Direction
156 158 161 165 167 169 171 173 170 171 175 178 177 178 177 177 177 174 170 167 168 169 170 170 162 158 160 170 176 180 184 190 195 196 196 198 189 173 161 160 159 158 157 156 156 156 155 155 155 156 159 163 166 168 170 173 172 172 172 174 174 173 173 174 175 176 177 179 182
156 158 159 161 163 164 167 169 169 172 177 180 177 176 176 177 178 176 175 175 174 170 166 166 158 156 159 169 177 182 185 187 190 193 196 198 188 173 162 161 161 159 158 156 157 156 156 156 155 157 160 164 168 171 173 175 172 171 172 175 174 173 173 175 177 177 178 179 180
155 156 157 160 162 164 167 170 171 174 176 177 175 175 175 178 179 179 178 180 174 167 162 162 160 158 159 164 171 177 181 182 186 190 194 197 185 171 163 161 160 159 157 157 158 157 156 157 157 159 163 168 172 173 174 175 171 170 172 176 174 173 173 177 178 178 178 181 180
154 156 159 162 164 166 167 169 171 174 175 174 172 173 176 179 179 178 178 177 173 169 166 166 166 164 163 163 166 169 173 176 181 187 192 195 183 170 162 160 159 158 157 157 157 157 157 157 159 163 169 172 173 174 174 174 171 171 174 177 174 173 174 178 179 179 181 183 183
155 158 162 165 167 166 166 167 169 171 172 171 171 174 177 179 176 174 172 174 175 174 173 173 174 173 170 165 163 163 165 170 177 185 190 194 181 168 161 159 158 157 157 157 157 157 157 157 159 165 171 173 174 175 175 173 171 172 175 178 176 176 176 178 179 181 182 184 185
158 160 163 166 166 165 164 165 166 166 167 168 172 175 177 178 176 173 172 174 175 173 172 174 179 180 176 168 162 160 162 167 177 185 189 191 177 165 159 159 157 157 156 157 156 156 157 158 160 164 169 172 174 175 175 172 171 172 175 179 180 179 177 179 180 181 182 183 185
158 160 163 166 166 165 164 165 164 164 165 168 173 176 177 176 175 174 173 172 172 171 170 173 180 183 180 171 162 160 163 172 181 187 189 186 171 162 159 158 156 156 156 156 156 156 157 158 160 163 167 170 173 175 174 171 171 172 175 179 182 181 180 182 182 181 181 183 184
156 159 162 165 166 165 164 165 164 164 166 171 176 177 176 173 172 172 172 172 174 174 173 175 179 182 180 173 162 161 167 178 184 188 189 182 167 160 158 157 156 156 157 156 156 156 157 158 161 163 165 169 172 174 174 171 171 172 175 179 182 183 183 185 183 183 183 184 184
156 159 161 165 166 166 165 167 167 167 170 175 179 177 174 169 168 169 172 176 176 176 175 177 178 178 177 174 164 164 170 178 183 187 188 179 165 159 157 156 156 156 156 156 156 156 157 158 160 163 166 169 171 172 172 170 170 172 175 179 181 183 185 186 184 183 184 185 186
157 159 161 165 167 167 166 169 170 170 172 178 181 178 173 166 166 168 171 174 173 174 176 178 175 173 172 172 166 166 169 175 181 184 185 176 164 159 157 157 157 157 156 157 157 156 157 157 159 162 166 169 169 169 169 169 170 172 176 179 181 182 184 187 185 184 185 187 189
159 160 162 165 167 166 166 170 173 174 175 180 186 186 183 174 167 165 165 164 167 171 174 175 171 168 167 167 164 165 168 174 180 182 179 172 164 160 158 157 157 157 157 158 157 157 157 157 158 161 165 168 167 167 168 170 171 173 176 179 180 181 184 188 187 187 187 190 191
158 160 162 164 165 166 168 172 175 176 178 183 193 195 192 183 168 158 155 158 163 168 170 168 164 161 160 160 159 163 169 178 181 178 172 166 162 160 159 158 158 157 157 158 157 157 157 158 158 161 164 166 165 166 168 170 171 173 176 179 179 182 185 189 190 189 190 190 192
158 159 161 162 164 166 170 175 176 177 180 186 196 196 191 180 164 154 151 156 160 164 164 162 158 154 153 153 156 165 174 183 180 173 166 162 162 160 159 158 157 157 157 157 157 157 158 158 159 161 163 165 166 168 170 171 172 174 176 179 181 184 187 190 191 190 190 190 193
159 160 161 162 164 168 173 177 177 177 182 189 194 191 184 173 161 153 151 155 158 161 162 161 158 155 153 153 160 171 180 184 175 167 162 161 162 160 159 157 157 156 156 156 156 157 158 160 160 161 162 164 166 169 171 172 174 176 178 180 183 186 189 190 190 189 189 191 195
161 162 162 163 165 170 175 179 178 180 185 191 190 185 177 169 160 155 154 156 160 163 165 166 166 161 158 157 165 173 180 180 172 164 160 161 161 160 159 157 156 155 155 154 155 157 159 160 161 161 162 163 165 168 171 175 176 178 180 182 185 187 189 190 189 189 189 192 195
164 164 163 163 167 172 176 180 180 183 187 190 184 178 171 166 162 159 159 162 167 169 171 174 174 167 161 158 163 169 175 178 172 165 160 160 161 161 159 158 157 155 154 153 154 156 159 160 160 161 161 162 163 166 170 174 176 179 181 184 186 187 188 189 189 190 191 192 193
166 165 164 165 168 173 177 181 182 185 186 186 177 172 168 165 163 163 166 171 176 178 178 180 178 169 160 155 158 164 171 177 173 166 161 161 161 161 160 159 157 155 153 152 152 154 156 157 157 157 157 158 159 162 165 168 171 174 177 180 182 184 185 185 186 188 189 190 191
168 166 165 166 170 174 178 181 183 184 183 179 172 168 166 164 163 166 171 177 180 181 180 180 174 164 156 153 157 164 171 175 170 164 161 161 161 161 160 159 157 154 152 151 151 152 153 153 152 151 151 152 153 155 157 159 161 163 165 167 170 172 173 175 177 179 181 182 184
169 167 166 167 172 176 180 183 184 183 180 175 169 166 165 164 164 167 174 182 182 180 177 173 166 159 154 153 159 166 172 172 164 159 158 160 160 160 159 157 155 153 151 149 150 150 150 149 147 146 145 145 146 147 147 148 149 150 151 152 154 156 158 161 164 166 168 171 172
172 171 169 169 174 178 181 184 183 181 177 173 168 166 164 163 164 169 177 184 181 177 173 166 158 153 152 153 159 164 167 163 157 155 155 157 158 158 157 154 152 150 148 147 147 147 147 146 144 142 141 140 140 140 140 139 140 141 142 144 146 148 151 154 156 158 159 162 163
177 175 172 172 175 179 182 183 180 177 174 172 170 167 164 162 165 171 177 180 177 173 167 156 150 147 147 150 154 156 156 151 150 151 151 153 154 154 152 150 148 147 146 145 145 145 145 144 143 141 139 138 138 138 137 136 135 136 137 139 142 146 148 151 153 156 159 162 164
180 177 174 173 177 179 180 179 175 172 172 172 171 168 165 162 167 171 173 172 172 167 158 147 143 142 142 142 142 142 142 142 144 145 145 146 145 144 143 141 140 140 140 142 143 143 142 141 140 139 138 136 136 136 135 134 135 135 137 139 142 146 150 152 156 160 164 168 171
181 177 173 172 175 177 176 173 169 169 170 171 170 169 167 166 168 168 167 166 166 158 147 139 138 137 135 132 129 127 128 131 133 133 132 132 132 133 134 136 138 140 142 144 144 142 140 139 138 138 138 137 137 137 136 137 138 140 143 149 153 158 162 164 166 170 174 179 183
179 175 171 170 172 173 172 168 165 166 168 169 170 169 168 166 166 166 164 163 157 146 135 130 130 130 130 130 123 120 120 123 124 124 123 122 123 124 125 127 128 130 131 133 138 141 141 141 142 141 141 140 141 141 142 144 147 153 159 167 175 181 185 187 186 187 190 196 202
174 170 167 165 168 169 168 163 161 163 166 169 172 172 169 162 162 163 162 159 148 136 126 122 122 126 132 135 130 128 126 127 122 120 116 111 105 102 101 101 97 91 85 84 110 124 132 136 141 144 146 146 146 145 145 147 154 163 171 180 191 200 207 210 207 206 207 212 219
167 165 163 162 163 163 162 159 157 159 164 169 173 172 166 158 156 157 158 154 144 135 128 125 122 125 131 134 131 129 127 127 114 105 100 93 84 79 78 79 76 70 63 64 97 107 111 111 115 124 132 136 133 129 121 104 79 65 56 50 48 23 258 243 242 239 232 220 321
163 161 159 158 159 160 159 156 152 157 164 172 173 169 160 151 147 146 142 131 117 106 103 105 103 103 102 100 95 92 90 91 85 84 84 85 81 77 73 68 63 57 63 82 99 101 99 94 91 92 95 96 86 78 70 64 52 46 42 41 37 34 30 29 28 31 37 44 41
159 155 152 152 156 158 158 156 153 158 165 172 172 167 154 142 129 114 98 88 81 79 79 83 83 82 80 79 80 82 84 86 85 84 83 83 81 78 75 70 63 58 68 90 96 95 92 87 84 81 78 76 71 65 62 61 57 52 47 46 42 40 40 42 40 40 40 40 39
152 145 144 146 150 152 154 157 157 159 162 164 161 142 113 113 95 81 73 73 74 76 79 83 83 83 84 87 88 89 89 89 89 87 85 82 77 73 69 66 60 56 62 76 86 87 86 85 82 80 78 76 75 70 65 63 60 56 52 50 48 48 49 52 53 52 51 49 47
143 137 136 141 142 146 150 155 157 153 142 121 103 89 83 84 77 74 73 74 74 75 80 87 89 91 93 96 95 93 90 87 86 85 83 81 76 72 67 64 60 58 62 70 79 82 83 83 82 81 80 80 79 77 74 72 71 68 65 61 58 57 58 59 56 55 53 52 54
135 132 132 136 137 142 146 146 135 118 101 91 86 84 84 81 78 77 77 77 77 78 82 88 92 93 95 94 92 89 87 84 82 82 83 82 79 76 72 67 64 63 66 72 79 82 83 83 82 82 82 82 82 81 79 77 75 72 69 64 60 58 58 59 58 57 56 58 61
124 120 118 116 116 121 123 117 102 95 92 92 90 89 87 86 84 82 82 84 86 88 89 91 93 94 92 88 84 82 80 79 79 81 83 85 84 81 76 71 66 65 68 74 79 82 83 83 84 84 84 84 84 84 83 81 78 74 69 65 61 58 57 57 57 57 57 58 61
105 101 97 95 97 99 101 100 97 95 93 90 89 89 89 89 87 85 84 85 89 91 92 92 92 91 88 85 82 80 78 77 78 80 83 85 86 84 80 74 69 67 69 74 79 81 82 83 84 84 84 84 84 84 83 82 79 74 70 65 62 59 58 58 58 56 56 56 59
101 99 97 96 96 97 98 99 98 96 92 89 88 88 89 91 90 89 88 88 90 89 87 86 86 85 84 83 83 82 80 78 78 80 82 84 85 84 81 76 71 68 70 75 79 81 82 83 84 84 84 84 84 83 81 79 77 74 71 68 63 60 58 57 56 56 56 57 60
108 105 103 101 100 99 98 97 96 93 91 89 88 88 89 90 92 94 96 97 93 89 85 82 82 81 80 78 79 80 81 81 80 81 82 85 85 83 81 78 74 69 70 75 79 81 83 84 85 85 85 85 84 83 81 79 76 74 72 69 64 60 57 55 54 53 54 55 60
114 113 110 108 105 102 100 97 95 93 92 92 92 92 92 92 94 97 101 101 95 89 86 82 81 80 79 78 76 76 78 82 82 82 82 83 84 84 83 80 74 69 68 72 77 80 83 85 86 86 85 85 84 83 81 79 77 74 71 69 65 61 57 56 54 53 52 53 57
117 117 116 114 111 108 104 101 98 96 95 95 96 96 96 95 96 98 100 100 94 89 86 83 81 81 81 81 79 78 78 81 83 82 81 79 82 83 83 80 74 69 67 69 74 78 81 83 84 85 86 86 85 83 82 80 78 75 72 70 67 63 61 60 58 57 55 55 56
110 114 116 116 115 112 109 105 102 100 99 98 98 98 98 97 96 95 95 95 92 90 87 85 83 84 85 86 84 81 78 77 80 81 80 78 79 81 83 81 76 70 67 68 72 75 78 80 81 83 85 87 87 86 85 83 82 80 77 75 72 68 65 64 62 61 59 57 58
96 101 106 110 111 111 109 107 105 104 102 100 98 97 95 94 92 90 89 88 89 90 89 87 86 87 87 88 86 82 78 75 76 77 78 77 76 78 80 80 76 71 68 67 71 74 77 79 81 83 86 88 89 89 89 89 88 86 84 81 79 73 69 65 64 61 59 58 58
92 93 94 98 102 104 105 105 105 105 104 101 98 96 94 94 93 91 88 85 86 87 88 88 88 87 87 86 85 82 78 74 72 72 74 75 74 74 75 77 75 71 69 68 71 74 77 80 82 85 87 90 91 92 93 94 92 90 88 85 83 79 73 67 64 62 59 57 56
91 92 92 93 95 98 100 101 102 102 101 100 98 97 96 96 94 92 89 87 86 86 87 87 87 87 86 84 83 81 78 74 70 69 70 72 71 71 71 73 73 71 69 68 71 74 77 79 81 84 86 90 92 93 95 96 94 92 91 88 86 83 79 74 68 63 61 59 57